FLOCK 4S-3 (47494 NORAD) Tracking and Keplerian Element Data

This shows tracking and keplerian element data for the satellite.

Feedback or suggestion? Click here.




ElementValue
Catalog47494
NameFLOCK 4S-3
Epoch Orbit1196
Epoch Day101.74214894
Epoch Year2021
RAAN164.0807
Inclination97.493
Eccentricity0.0009655
Argument of Perigee337.276
Mean Anonmoly22.8042
Mean Motion15.12526564
Decay Rate7.13E-06
L11 47494U 21006CK 21101.74214894 .00000713 00000-0 44607-4 0 9997
L22 47494 97.4930 164.0807 0009655 337.2760 22.8042 15.12526564 11963

Live tracking and technical data element details for FLOCK 4S-3 (NORAD 47494). FLOCK 4S-3 can be tracked NOW for your location showing map with azimuth and elevation plus other details from your city location.

Track the satellite on the map from your city or location and see movement details for azimuth, elevation, latitude, longitude, range, height, and movement on the map or in text.







IsCatalogInMostPopularTable: catalog: 47494, numindb: 19
Update: records affected: 1



GetName: 47494 FLOCK 4S-3

Hit Count: updated at: Tue, 13 Apr 2021 05:05:12 GMT